Total_Precipitation_Accumulation
0.91 0.94 0.95 0.87 0.86 0.87 0.94 1.13 1.37 1.16 0.69 0.51 0.51 0.57 0.64 0.73 0.91 0.85 0.79 0.82 0.84 0.88 0.95 0.96 0.95 1.04 1.33 1.91 2.86 4.20 4.86 4.22 3.33 3.00 2.96 3.19 3.52 3.98
0.85 0.92 0.94 0.91 0.88 0.87 0.95 1.00 1.12 1.27 1.00 0.54 0.47 0.53 0.67 0.72 0.79 0.75 0.78 0.88 0.85 0.84 0.86 0.90 0.96 1.01 1.15 1.40 1.88 2.72 3.93 4.62 4.27 3.61 3.26 3.36 3.55 3.80
0.83 0.86 0.87 0.88 0.93 0.89 0.93 0.97 0.96 1.02 1.01 0.59 0.43 0.46 0.66 0.76 0.75 0.72 0.77 0.80 0.79 0.86 0.88 0.90 0.95 1.03 1.18 1.32 1.56 1.99 2.70 3.69 4.36 4.24 3.83 3.60 3.50 3.52
0.82 0.82 0.82 0.82 0.87 0.84 0.85 0.86 0.84 0.80 0.84 0.69 0.47 0.45 0.54 0.65 0.77 0.84 0.81 0.80 0.78 0.83 0.86 0.93 1.03 1.05 1.12 1.26 1.47 1.79 2.16 2.71 3.42 3.95 4.00 3.76 3.51 3.47
0.81 0.84 0.82 0.84 0.87 0.81 0.82 0.79 0.72 0.67 0.71 0.74 0.58 0.50 0.54 0.59 0.76 0.91 0.89 0.87 0.84 0.86 0.89 0.96 1.03 1.09 1.12 1.17 1.34 1.58 1.79 2.03 2.45 3.19 3.73 3.69 3.54 3.41
0.76 0.75 0.80 0.91 0.91 0.89 0.91 0.80 0.74 0.77 0.81 0.87 0.74 0.62 0.65 0.67 0.82 1.02 1.11 1.06 1.02 0.92 0.95 0.99 1.08 1.16 1.15 1.09 1.10 1.19 1.37 1.71 2.07 2.51 3.11 3.50 3.39 3.31
0.71 0.72 0.79 0.93 0.98 1.10 1.19 1.06 1.03 1.12 1.09 1.11 1.02 0.92 0.88 0.91 0.99 1.03 1.18 1.22 1.22 1.10 1.00 0.95 0.98 0.99 1.02 1.05 1.05 1.08 1.15 1.34 1.67 2.04 2.47 2.94 3.24 3.29
0.75 0.71 0.73 0.85 0.89 0.97 1.11 1.18 1.25 1.37 1.41 1.40 1.35 1.24 1.03 0.96 1.00 1.13 1.21 1.39 1.46 1.20 1.12 1.06 1.03 1.09 1.03 1.01 1.11 1.12 1.13 1.23 1.44 1.74 2.07 2.39 2.77 3.16
0.74 0.72 0.72 0.79 0.86 0.85 0.93 0.96 0.99 1.13 1.34 1.46 1.52 1.20 1.03 0.98 1.16 1.36 1.34 1.43 1.40 1.33 1.43 1.38 1.13 1.13 1.06 1.15 1.28 1.19 1.13 1.14 1.24 1.46 1.75 2.03 2.30 2.65
0.68 0.70 0.69 0.72 0.83 1.01 1.00 0.94 0.84 0.87 1.09 1.30 1.53 1.36 1.19 1.23 1.51 1.82 1.92 1.82 1.47 1.29 1.45 1.63 1.25 1.14 1.15 1.23 1.36 1.26 1.13 1.08 1.11 1.28 1.50 1.71 1.94 2.23
0.67 0.66 0.67 0.67 0.86 1.12 1.10 0.97 0.80 0.72 0.84 1.15 1.45 1.57 1.58 1.68 1.89 2.21 2.40 2.23 1.82 1.35 1.33 1.57 1.44 1.28 1.38 1.52 1.55 1.42 1.17 1.10 1.11 1.17 1.28 1.40 1.61 1.92
0.74 0.69 0.76 0.84 0.98 1.12 1.06 1.01 1.08 0.89 0.78 0.82 0.91 1.04 1.15 1.28 1.60 1.88 2.15 2.22 1.92 1.75 1.46 1.52 1.65 1.64 1.85 1.76 1.62 1.39 1.17 1.12 1.12 1.13 1.14 1.20 1.33 1.41
0.80 0.76 0.72 0.90 0.98 1.04 1.09 1.07 1.27 1.19 0.98 0.97 0.93 0.90 0.91 1.04 1.24 1.53 1.88 2.12 2.10 1.86 1.55 1.76 2.05 1.87 1.91 1.79 1.68 1.57 1.23 1.05 1.04 1.11 1.14 1.15 1.19 1.19
0.75 0.66 0.69 0.89 0.97 1.04 1.02 1.09 1.20 1.17 1.02 0.95 0.85 0.81 0.86 0.94 1.06 1.23 1.53 1.75 1.81 1.66 1.43 1.73 2.26 2.06 1.90 1.65 1.58 1.68 1.48 1.21 1.06 1.03 1.04 1.23 1.22 1.15
0.75 0.82 0.88 0.98 0.97 0.90 0.92 1.00 0.99 0.94 1.03 1.02 0.88 0.80 0.84 0.97 1.04 1.08 1.22 1.48 1.64 1.60 1.52 1.58 1.95 2.06 2.04 1.78 1.46 1.51 1.60 1.50 1.24 1.13 1.07 1.04 0.96 0.90
0.92 0.95 1.01 0.99 0.89 0.78 0.79 0.80 0.77 0.85 1.00 1.02 0.90 0.79 0.78 0.87 1.00 1.09 1.19 1.33 1.55 1.59 1.58 1.63 1.88 2.22 2.17 1.73 1.52 1.45 1.40 1.56 1.46 1.28 1.13 1.01 0.87 0.71
1.11 1.18 1.10 1.00 0.93 0.81 0.69 0.62 0.65 0.78 0.90 0.86 0.86 0.84 0.80 0.82 0.89 0.99 1.18 1.31 1.46 1.52 1.62 1.78 1.93 2.11 2.20 2.11 1.92 1.55 1.33 1.29 1.34 1.32 1.24 1.18 1.06 0.84
1.25 1.19 0.98 0.84 0.80 0.76 0.71 0.67 0.62 0.64 0.70 0.77 0.83 0.84 0.84 0.85 0.87 0.90 1.04 1.26 1.40 1.45 1.53 1.67 1.86 2.07 2.25 2.36 2.14 1.72 1.41 1.27 1.33 1.39 1.31 1.29 1.27 1.05
1.11 0.93 0.77 0.71 0.69 0.68 0.66 0.63 0.59 0.55 0.60 0.67 0.71 0.75 0.81 0.85 0.87 0.89 0.95 1.10 1.27 1.39 1.49 1.58 1.72 1.92 2.08 2.23 2.31 1.95 1.62 1.38 1.36 1.54 1.51 1.34 1.25 1.14
0.91 0.82 0.75 0.68 0.65 0.67 0.67 0.64 0.61 0.58 0.62 0.63 0.64 0.66 0.73 0.82 0.84 0.84 0.88 1.00 1.15 1.29 1.38 1.46 1.64 1.83 1.99 1.96 2.05 2.07 1.96 1.66 1.45 1.57 1.64 1.53 1.42 1.37
0.81 0.80 0.77 0.74 0.71 0.70 0.71 0.70 0.68 0.65 0.63 0.64 0.64 0.63 0.63 0.71 0.74 0.72 0.77 0.88 1.03 1.16 1.25 1.27 1.40 1.62 1.84 1.88 1.81 1.77 1.95 1.98 1.67 1.60 1.68 1.73 1.68 1.58
0.75 0.80 0.81 0.80 0.79 0.79 0.79 0.77 0.75 0.69 0.66 0.65 0.62 0.61 0.60 0.63 0.66 0.67 0.72 0.79 0.85 0.97 1.11 1.19 1.30 1.53 1.81 1.97 1.88 1.74 1.81 1.97 2.00 1.81 1.70 1.71 1.82 1.78
0.83 0.83 0.83 0.83 0.83 0.84 0.84 0.80 0.75 0.68 0.63 0.61 0.61 0.59 0.60 0.62 0.62 0.65 0.69 0.73 0.80 0.87 0.98 1.14 1.28 1.44 1.66 1.85 1.95 1.87 1.75 1.77 1.87 1.89 1.99 1.78 1.42 1.23